Dewpoint
48 39 40 36 27 23 22 23 32 24 25 29 33 35 40 44 39 24 57 61 63 64 67 68 70 69 69 69 69 68 68 67 68 69 69 68 67 66 65 64 64 64 64 63 64 65 64 63 63
43 36 37 31 25 18 17 26 23 25 31 45 39 42 44 44 55 55 58 61 63 66 67 68 69 70 70 69 69 68 67 67 68 69 69 68 66 65 64 63 63 64 64 64 65 66 64 63 63
41 32 30 27 20 19 18 21 23 27 40 31 41 45 47 48 54 57 58 61 64 66 68 68 69 70 69 69 68 67 66 66 67 69 69 67 66 65 64 63 63 64 64 62 65 65 64 63 63
35 33 29 17 15 19 22 23 27 28 28 32 43 42 48 54 56 57 61 62 64 66 67 68 70 69 68 68 67 65 65 65 66 68 68 66 65 64 63 63 62 64 62 62 63 64 63 63 63
32 29 24 23 24 19 27 28 28 30 35 39 41 41 47 55 59 61 61 61 64 65 67 68 70 69 69 68 66 66 66 65 65 67 68 66 64 63 63 62 62 62 63 62 63 64 64 64 64
29 26 22 21 22 20 33 29 26 24 26 36 43 47 50 56 59 60 62 61 64 65 67 68 67 68 68 68 67 67 67 67 66 67 67 65 63 63 62 62 62 62 62 62 65 65 65 65 65
27 25 21 25 22 24 26 28 23 24 26 28 45 44 45 53 59 61 61 62 63 65 66 67 68 67 66 67 67 67 66 67 67 67 67 65 65 64 63 63 62 62 61 62 64 64 64 64 63
29 27 24 27 17 16 20 27 23 27 25 35 45 38 44 54 60 61 62 62 63 65 66 66 66 67 66 66 64 65 65 66 66 66 65 64 63 64 63 62 63 62 61 63 63 63 63 62 62
25 20 20 17 17 21 21 21 22 25 27 32 34 43 45 58 60 61 60 62 63 64 64 65 65 66 65 65 63 63 63 64 64 63 61 60 59 59 59 60 62 63 62 62 63 63 62 61 61
21 19 18 17 18 19 20 21 21 29 32 34 36 43 50 58 60 60 60 60 62 62 64 65 65 65 65 66 64 64 63 62 61 60 59 58 57 57 58 59 61 62 62 62 62 61 58 56 54
20 15 16 20 21 21 21 20 21 25 28 24 27 37 53 56 58 59 60 61 61 62 63 64 65 65 66 66 65 63 62 61 59 59 58 56 55 56 57 58 58 58 57 57 57 54 54 53 53
17 20 18 25 25 21 21 20 20 21 26 21 25 42 54 57 58 59 58 58 60 61 62 63 64 65 65 65 64 65 64 60 59 58 57 56 55 54 55 56 55 55 54 51 51 52 51 52 52
17 18 24 26 23 22 23 21 20 22 20 24 27 49 54 57 58 58 58 57 58 60 61 62 63 64 64 64 64 64 64 62 59 58 57 56 55 54 54 54 54 54 53 51 50 50 51 50 50
18 20 24 24 23 24 21 19 32 28 27 21 35 44 51 55 56 54 56 57 58 60 60 61 63 63 64 64 64 63 63 64 60 58 57 56 55 54 53 53 53 53 52 51 50 49 50 50 49
20 15 17 21 23 23 23 11 20 22 19 22 23 38 47 51 53 56 57 58 58 59 60 61 62 63 64 64 63 63 63 63 63 60 58 57 56 54 53 52 53 53 53 51 50 49 48 48 48
16 11 7 9 23 24 10 -2 3 20 28 16 19 23 33 46 51 54 55 56 57 57 59 61 62 62 62 63 63 63 63 62 62 62 59 58 57 56 55 53 53 53 52 51 49 48 46 47 47
15 2 8 6 23 24 15 8 13 23 22 25 22 19 22 27 37 47 52 55 56 57 58 60 61 62 62 62 63 63 63 63 62 62 61 59 58 57 56 54 54 52 51 51 49 46 46 44 43
9 13 13 13 18 27 26 19 20 21 22 21 20 20 20 21 23 27 42 50 55 56 58 59 60 61 62 62 61 61 60 63 63 63 63 60 59 58 57 56 54 52 51 51 49 46 43 43 42
11 9 15 24 23 21 20 20 21 21 21 21 20 20 21 21 22 23 24 36 50 53 56 58 59 60 61 62 62 62 62 62 61 62 62 63 61 60 58 57 55 53 51 50 49 46 42 38 35
15 13 16 18 23 25 21 19 20 20 20 19 18 18 18 18 19 21 24 24 37 47 54 56 58 59 61 62 62 61 61 61 61 61 61 63 63 62 59 58 56 54 53 51 49 46 42 39 36
16 13 14 11 18 18 13 6 6 9 16 17 17 18 17 16 16 19 21 23 25 33 47 53 56 58 60 61 58 55 56 55 57 57 59 61 63 63 61 60 58 56 55 53 50 48 46 42 36
12 17 16 19 14 9 19 -0 9 12 14 13 12 18 24 27 28 30 28 27 23 26 32 48 53 55 58 59 59 59 60 59 59 59 57 57 59 62 62 61 60 57 56 55 52 50 48 48 40
16 22 20 19 20 21 17 9 8 9 7 10 22 24 26 26 27 29 30 34 36 36 31 39 48 53 56 59 59 58 57 57 54 53 54 54 54 58 60 62 61 58 57 56 54 50 49 48 46
27 20 20 23 17 9 14 9 3 2 4 10 14 18 25 30 31 32 33 33 36 38 42 44 48 51 54 56 56 56 56 55 51 50 51 51 51 52 54 59 60 60 58 57 56 52 50 49 48
17 11 9 8 13 7 17 14 9 10 13 13 18 23 30 31 32 33 34 34 35 38 39 44 48 49 51 53 53 53 54 53 52 51 51 49 49 49 50 54 58 59 58 57 56 53 51 50 49
16 12 11 3 7 6 20 14 10 17 19 20 28 32 30 32 34 35 35 35 35 36 38 39 41 43 46 49 50 50 51 51 51 51 50 49 49 49 49 49 53 56 58 56 55 54 52 51 49
21 13 15 17 11 14 11 12 9 19 27 28 28 29 30 31 33 33 34 34 35 36 37 37 38 38 39 41 42 43 45 46 48 48 47 48 47 47 47 47 48 49 52 55 55 54 52 50 49
23 22 17 17 4 4 4 9 4 19 26 26 27 28 29 30 31 31 32 32 33 34 35 36 37 37 38 38 39 40 41 42 43 44 44 45 45 45 45 45 45 46 46 49 52 52 52 51 50
22 20 20 18 16 10 6 5 12 25 25 25 26 29 29 30 31 32 32 33 33 34 34 34 35 36 37 37 38 38 39 40 41 41 42 42 43 43 43 44 44 44 44 44 46 48 49 49 49
26 21 19 15 14 17 16 10 23 25 26 27 26 27 29 30 30 32 34 35 35 35 36 36 37 37 37 37 37 38 38 39 39 40 40 41 41 42 42 42 42 43 44 44 44 46 47 47 47
Lifted_Index
9 9 8 6 5 5 4 4 4 4 4 4 3 4 3 3 2 1 1 0 -0 -1 -2 -3 -2 -2 -2 -2 -1 -1 -1 -1 -2 -2 -2 -2 -1 -0 0 1 1 1 1 2 1 1 2 2 3
9 9 7 6 5 4 4 5 4 4 4 4 4 3 3 2 1 1 0 0 -0 -1 -2 -3 -3 -2 -2 -2 -1 -1 -1 -1 -2 -2 -2 -2 -1 -0 1 1 2 2 2 2 1 1 2 2 3
9 8 7 6 5 4 5 5 5 5 5 5 4 3 2 1 0 0 1 0 -1 -2 -3 -3 -3 -3 -2 -2 -1 -1 -0 -1 -1 -2 -2 -1 -1 0 1 2 2 2 2 2 1 1 2 2 3
8 8 7 5 5 5 6 6 6 6 6 6 5 4 2 1 0 0 0 0 -1 -2 -3 -3 -3 -3 -2 -2 -1 -0 -0 -0 -1 -2 -2 -1 -0 1 1 2 2 2 2 2 2 2 2 2 2
8 7 6 5 5 6 6 7 7 7 7 6 5 3 1 0 -0 -0 0 0 -1 -2 -3 -3 -4 -3 -2 -2 -1 -0 -0 -0 -1 -2 -2 -1 0 1 2 2 2 2 2 2 1 1 1 1 1
7 6 5 5 5 6 6 7 7 7 7 6 5 3 1 -0 -1 -0 0 0 -1 -1 -2 -3 -3 -3 -3 -2 -1 -1 -1 -1 -1 -1 -1 -0 1 1 2 2 2 2 2 2 1 1 1 1 1
7 6 5 5 5 5 6 7 7 7 7 6 5 4 2 -0 -1 -0 0 0 -0 -1 -2 -3 -3 -3 -3 -2 -2 -1 -1 -1 -1 -1 -1 0 1 2 2 2 2 2 2 2 1 1 1 2 2
7 6 5 5 5 5 6 7 7 8 8 7 6 5 3 0 -1 -0 -0 -0 -0 -1 -2 -2 -3 -3 -2 -2 -1 -1 -0 -0 -0 -0 0 1 2 2 2 3 3 2 2 2 2 2 2 3 3
7 6 5 5 5 6 7 7 7 8 8 7 7 6 4 1 -1 -1 -0 -1 -1 -1 -2 -2 -2 -2 -2 -1 -1 -0 0 1 1 1 1 2 3 3 3 3 3 3 3 2 2 3 3 4 4
6 6 6 6 6 6 7 7 7 7 7 7 7 7 4 1 -1 -1 -1 -1 -1 -1 -2 -2 -2 -2 -2 -1 -1 -0 1 1 2 2 3 3 4 4 4 4 4 3 3 3 4 4 5 6 6
6 6 6 6 7 7 7 7 7 7 7 7 8 7 4 1 -1 -1 -1 -1 -1 -1 -1 -1 -1 -1 -2 -1 -1 -0 1 2 2 3 3 4 4 5 5 4 4 4 4 5 5 6 7 7 7
7 7 7 7 7 7 7 7 7 7 7 8 8 7 4 1 -0 -1 -1 -1 -1 -1 -1 -1 -1 -1 -1 -1 -1 -0 1 1 2 3 3 4 4 4 4 4 5 5 5 6 6 7 7 7 7
7 7 7 8 8 7 7 7 7 7 8 8 8 7 4 2 0 -0 -1 -1 -1 -1 -1 -1 -1 -1 -1 -1 -1 -0 0 1 2 2 3 3 3 4 4 4 4 5 5 5 6 6 6 6 6
7 7 7 7 8 7 7 6 6 7 7 7 8 7 5 3 1 1 -0 -0 -0 -0 -0 -0 -0 -0 -0 -0 -0 -0 0 1 1 2 2 2 3 3 3 3 4 4 5 5 6 6 6 6 6
7 7 6 7 7 7 6 6 6 6 7 7 7 7 7 5 3 2 1 0 0 -0 -0 -0 0 0 0 0 0 0 0 0 1 1 1 2 2 2 3 3 3 4 4 5 5 5 6 6 6
6 6 5 6 7 7 6 5 5 6 6 6 6 7 7 7 5 4 2 1 1 0 0 -0 0 0 0 0 0 0 0 0 0 1 1 2 2 2 3 3 3 3 4 4 4 5 5 5 5
5 4 4 5 6 6 5 5 5 6 6 6 6 6 7 7 7 6 5 3 2 1 1 0 -0 -0 0 0 0 0 0 0 0 0 1 2 2 2 3 3 3 3 3 3 3 3 4 4 4
4 4 4 5 6 6 5 5 5 6 6 6 6 6 6 7 7 7 7 6 4 3 2 1 0 -0 -0 -0 -0 -0 -0 -0 0 0 1 1 2 2 2 2 2 2 2 3 3 3 3 3 3
5 5 5 5 6 6 5 5 5 6 6 6 6 6 6 6 7 8 8 8 7 6 4 3 1 1 -0 -0 -0 -0 -0 -0 -0 0 0 1 1 1 2 2 2 2 2 2 2 3 3 3 3
5 5 5 5 6 6 5 4 5 5 5 5 6 6 6 6 6 7 7 8 8 7 6 4 3 2 1 0 -0 -0 -0 -0 -0 -0 -0 0 1 1 1 1 1 1 1 1 1 2 3 3 3
5 5 5 5 6 5 5 4 4 4 5 5 6 6 6 6 6 7 7 7 8 8 8 6 5 3 2 1 0 -0 -0 0 0 0 -0 -0 -0 0 0 1 1 1 0 1 1 1 2 3 3
5 6 6 6 5 5 4 3 3 4 4 5 5 6 6 6 7 7 7 7 7 8 8 8 7 5 3 2 1 0 0 1 1 0 0 -0 -0 -0 -0 0 1 1 0 1 1 1 1 2 2
6 7 7 6 5 4 4 3 3 3 4 5 5 6 6 7 7 7 7 7 8 8 8 8 8 6 4 3 2 1 1 1 1 1 1 0 0 0 0 0 1 1 1 1 1 1 1 2 2
7 7 6 5 4 3 3 3 3 4 4 5 6 7 7 8 8 8 8 8 8 8 8 8 8 7 5 3 2 2 2 1 1 1 1 1 1 1 1 1 1 1 1 1 1 2 2 2 2
7 6 4 3 2 2 3 3 4 5 6 6 7 7 8 8 8 8 8 8 8 8 8 8 8 7 6 4 3 3 2 2 2 2 2 2 2 2 2 2 2 2 2 2 2 2 2 2 2
6 5 3 2 1 2 3 4 5 6 7 7 8 8 8 8 8 8 8 8 8 8 8 8 8 8 7 6 5 4 4 4 4 4 4 4 4 4 4 4 4 4 4 4 3 3 3 3 3
6 5 4 3 2 2 3 4 5 7 7 8 8 8 8 8 8 7 7 8 8 8 8 8 8 8 8 7 7 7 6 6 6 6 6 6 6 6 6 6 6 6 6 6 5 5 5 5 4
6 6 5 4 2 1 2 3 5 7 7 8 8 8 8 8 8 8 7 7 7 8 8 8 8 8 8 8 8 8 8 8 7 7 7 7 7 7 7 7 7 7 7 7 6 6 6 6 5
6 6 5 5 3 2 2 3 6 7 8 8 8 8 8 7 8 8 8 7 7 7 8 8 8 7 8 8 8 8 8 7 7 7 7 6 6 6 6 6 6 6 6 6 6 6 6 6 6
6 6 5 5 3 3 2 4 7 8 8 8 8 8 7 7 7 8 8 7 7 7 8 8 8 8 8 8 7 7 7 7 7 7 6 6 6 6 6 6 5 5 6 6 6 6 6 6 6